Satellite-Ground Cal/Val Site Overpasses Predictions

Prediction of Satellite NPP Overpassing Cal/Val Site: Antarctic Dome C

Ground Cal/Val Site Location: Latitude: -75.10, Longitude: 123.35; Satellite-Ground Site NADIR distance within 100 km.

Table of predicted overpasses for the next 14.0 days since TLE Epoch: 8/20/2016
Interval Starting Time Ending Time Minimum Distance Time Minimum Distance (km)
1 08/22/2016 14:55:25 08/22/2016 14:55:53 08/22/2016 14:55:39 19.17
2 08/23/2016 14:36:43 08/23/2016 14:36:57 08/23/2016 14:36:50 87.74
3 08/24/2016 07:38:15 08/24/2016 07:38:42 08/24/2016 07:38:28 34.91
4 08/25/2016 07:19:28 08/25/2016 07:19:47 08/25/2016 07:19:37 75.34
5 08/27/2016 15:01:41 08/27/2016 15:02:05 08/27/2016 15:01:53 56.00
6 08/28/2016 14:42:51 08/28/2016 14:43:16 08/28/2016 14:43:03 53.09
7 08/29/2016 07:44:31 08/29/2016 07:44:51 08/29/2016 07:44:41 69.91
8 08/30/2016 07:25:38 08/30/2016 07:26:05 08/30/2016 07:25:51 38.22
9 09/01/2016 15:08:02 09/01/2016 15:08:12 09/01/2016 15:08:07 93.49


NCC Satellite Cal/Val Overpasses Prediction Service
